| time (UTC) | temp C | wind direction | speed KPH | gust KPH | rain 1hr cm | rain 24hr cm | rain mn cm | humidity % | barometer mb |
| 20260510230504 | 26 | 175 | 3.2 | 11.3 | 0.00 | 0.05 | 0.00 | 69 | 1016.0 |
| 20260510230026 | 26 | 182 | 1.6 | 8.0 | 0.00 | 0.05 | 0.00 | 68 | 1016.0 |
| 20260510225507 | 26 | 205 | 3.2 | 8.0 | 0.00 | 0.05 | 0.00 | 68 | 1015.9 |
| 20260510225006 | 27 | 284 | 1.6 | 8.0 | 0.00 | 0.08 | 0.00 | 68 | 1015.9 |
| 20260510224528 | 27 | 228 | 1.6 | 6.4 | 0.00 | 0.08 | 0.00 | 68 | 1016.0 |
| 20260510224006 | 27 | 261 | 1.6 | 9.7 | 0.00 | 0.08 | 0.00 | 67 | 1016.0 |
| 20260510223508 | 27 | 181 | 1.6 | 9.7 | 0.00 | 0.08 | 0.00 | 67 | 1016.0 |
| 20260510223024 | 27 | 179 | 3.2 | 9.7 | 0.00 | 0.08 | 0.00 | 67 | 1016.0 |
| 20260510222508 | 27 | 283 | 1.6 | 11.3 | 0.00 | 0.08 | 0.00 | 66 | 1016.0 |
| 20260510222002 | 27 | 196 | 4.8 | 11.3 | 0.00 | 0.08 | 0.00 | 66 | 1016.0 |
| 20260510221507 | 27 | 150 | 1.6 | 11.3 | 0.00 | 0.08 | 0.00 | 65 | 1016.0 |
| 20260510221004 | 27 | 143 | 4.8 | 8.0 | 0.00 | 0.08 | 0.00 | 65 | 1015.9 |
| 20260510220505 | 27 | 247 | 1.6 | 8.0 | 0.00 | 0.08 | 0.00 | 68 | 1016.0 |
| 20260510220009 | 27 | 235 | 3.2 | 9.7 | 0.00 | 0.08 | 0.00 | 65 | 1015.9 |
| 20260510215505 | 27 | 217 | 3.2 | 9.7 | 0.00 | 0.08 | 0.00 | 65 | 1015.9 |
| 20260510215007 | 27 | 163 | 3.2 | 9.7 | 0.00 | 0.08 | 0.00 | 67 | 1015.8 |
| 20260510214515 | 27 | 140 | 3.2 | 9.7 | 0.00 | 0.08 | 0.00 | 66 | 1015.9 |
| 20260510214007 | 27 | 239 | 3.2 | 8.0 | 0.00 | 0.08 | 0.00 | 67 | 1015.9 |
| 20260510213510 | 27 | 161 | 3.2 | 9.7 | 0.00 | 0.08 | 0.00 | 67 | 1015.9 |
| 20260510213021 | 27 | 225 | 1.6 | 11.3 | 0.00 | 0.08 | 0.00 | 66 | 1015.9 |
| 20260510212505 | 27 | 222 | 3.2 | 11.3 | 0.00 | 0.08 | 0.00 | 63 | 1015.9 |
| 20260510212009 | 28 | 167 | 3.2 | 9.7 | 0.00 | 0.08 | 0.00 | 63 | 1015.8 |
| 20260510211531 | 27 | 207 | 3.2 | 12.9 | 0.00 | 0.08 | 0.00 | 64 | 1015.7 |
| 20260510211003 | 27 | 219 | 3.2 | 12.9 | 0.00 | 0.10 | 0.00 | 67 | 1015.8 |
| 20260510210505 | 28 | 206 | 4.8 | 12.9 | 0.00 | 0.10 | 0.00 | 65 | 1015.8 |
| 20260510210011 | 28 | 265 | 4.8 | 14.5 | 0.00 | 0.10 | 0.00 | 65 | 1015.9 |
| 20260510205503 | 28 | 230 | 3.2 | 14.5 | 0.00 | 0.13 | 0.00 | 65 | 1015.9 |
| 20260510205004 | 28 | 141 | 3.2 | 14.5 | 0.00 | 0.13 | 0.00 | 66 | 1015.8 |
| 20260510204515 | 27 | 185 | 6.4 | 11.3 | 0.00 | 0.13 | 0.00 | 66 | 1015.7 |
| 20260510204008 | 27 | 148 | 3.2 | 11.3 | 0.00 | 0.13 | 0.00 | 65 | 1015.8 |
| 20260510203508 | 27 | 171 | 3.2 | 11.3 | 0.00 | 0.13 | 0.00 | 65 | 1015.8 |
| 20260510203020 | 28 | 207 | 4.8 | 11.3 | 0.00 | 0.13 | 0.00 | 66 | 1015.8 |
| 20260510202503 | 28 | 149 | 1.6 | 8.0 | 0.00 | 0.13 | 0.00 | 65 | 1015.8 |
| 20260510202008 | 28 | 123 | 3.2 | 8.0 | 0.00 | 0.13 | 0.00 | 63 | 1015.7 |
| 20260510201523 | 28 | 155 | 3.2 | 11.3 | 0.00 | 0.13 | 0.00 | 64 | 1015.9 |
| 20260510201011 | 28 | 156 | 3.2 | 11.3 | 0.00 | 0.13 | 0.00 | 65 | 1015.8 |
| 20260510200506 | 28 | 84 | 1.6 | 9.7 | 0.00 | 0.13 | 0.00 | 65 | 1015.8 |
| 20260510200010 | 28 | 165 | 4.8 | 9.7 | 0.00 | 0.13 | 0.00 | 64 | 1015.9 |
| 20260510195503 | 28 | 5 | 1.6 | 14.5 | 0.00 | 0.13 | 0.00 | 66 | 1015.9 |
| 20260510195003 | 28 | 125 | 4.8 | 14.5 | 0.00 | 0.13 | 0.00 | 62 | 1015.9 |
| 20260510194512 | 28 | 170 | 3.2 | 9.7 | 0.00 | 0.13 | 0.00 | 65 | 1015.9 |
| 20260510194005 | 28 | 196 | 1.6 | 12.9 | 0.00 | 0.13 | 0.00 | 67 | 1015.8 |
| 20260510193505 | 27 | 201 | 6.4 | 12.9 | 0.00 | 0.13 | 0.00 | 65 | 1015.9 |
| 20260510193015 | 28 | 144 | 4.8 | 12.9 | 0.00 | 0.13 | 0.00 | 64 | 1015.9 |
| 20260510192508 | 28 | 244 | 3.2 | 12.9 | 0.00 | 0.13 | 0.00 | 66 | 1016.0 |
| 20260510192004 | 28 | 271 | 1.6 | 8.0 | 0.00 | 0.13 | 0.00 | 70 | 1016.0 |
| 20260510191522 | 28 | 171 | 3.2 | 12.9 | 0.00 | 0.13 | 0.00 | 66 | 1016.1 |
| 20260510191009 | 27 | 207 | 3.2 | 12.9 | 0.00 | 0.13 | 0.00 | 70 | 1016.2 |
| 20260510190506 | 27 | 205 | 3.2 | 12.9 | 0.00 | 0.13 | 0.00 | 70 | 1016.3 |
| 20260510190042 | 27 | 145 | 4.8 | 12.9 | 0.00 | 0.13 | 0.00 | 69 | 1016.3 |
| 20260510185509 | 27 | 159 | 4.8 | 12.9 | 0.00 | 0.13 | 0.00 | 69 | 1016.4 |
| 20260510185009 | 27 | 194 | 4.8 | 9.7 | 0.00 | 0.13 | 0.00 | 71 | 1016.4 |
| 20260510184512 | 27 | 227 | 3.2 | 11.3 | 0.00 | 0.13 | 0.00 | 70 | 1016.5 |
| 20260510184004 | 27 | 168 | 4.8 | 12.9 | 0.00 | 0.13 | 0.00 | 70 | 1016.5 |
| 20260510183506 | 27 | 163 | 3.2 | 12.9 | 0.00 | 0.13 | 0.00 | 72 | 1016.6 |
| 20260510183014 | 27 | 176 | 3.2 | 11.3 | 0.00 | 0.13 | 0.00 | 70 | 1016.6 |
| 20260510182504 | 28 | 231 | 4.8 | 9.7 | 0.00 | 0.13 | 0.00 | 68 | 1016.6 |
| 20260510182009 | 28 | 288 | 0.0 | 9.7 | 0.00 | 0.13 | 0.00 | 64 | 1016.7 |
| 20260510181519 | 28 | 276 | 3.2 | 9.7 | 0.00 | 0.13 | 0.00 | 64 | 1016.8 |
| 20260510181006 | 28 | 111 | 1.6 | 4.8 | 0.00 | 0.13 | 0.00 | 67 | 1016.8 |
| 20260510180509 | 28 | 253 | 0.0 | 6.4 | 0.00 | 0.13 | 0.00 | 66 | 1016.8 |
| 20260510180023 | 28 | 214 | 3.2 | 6.4 | 0.00 | 0.13 | 0.00 | 67 | 1016.7 |
| 20260510175510 | 28 | 180 | 1.6 | 3.2 | 0.00 | 0.13 | 0.00 | 65 | 1016.8 |
| 20260510175009 | 27 | 298 | 1.6 | 3.2 | 0.00 | 0.13 | 0.00 | 65 | 1016.9 |
| 20260510174524 | 27 | 263 | 1.6 | 4.8 | 0.00 | 0.13 | 0.00 | 69 | 1016.8 |
| 20260510174007 | 27 | 127 | 0.0 | 6.4 | 0.00 | 0.13 | 0.00 | 66 | 1016.7 |
| 20260510173502 | 27 | 352 | 1.6 | 6.4 | 0.00 | 0.13 | 0.00 | 65 | 1016.8 |
| 20260510173014 | 27 | 326 | 3.2 | 6.4 | 0.00 | 0.13 | 0.00 | 65 | 1017.0 |
| 20260510172508 | 27 | 157 | 1.6 | 8.0 | 0.00 | 0.13 | 0.00 | 69 | 1016.9 |
| 20260510172006 | 27 | 298 | 1.6 | 8.0 | 0.00 | 0.13 | 0.00 | 65 | 1016.9 |
| 20260510171517 | 27 | 70 | 3.2 | 6.4 | 0.00 | 0.13 | 0.00 | 67 | 1017.0 |
| 20260510171006 | 27 | 43 | 4.8 | 6.4 | 0.00 | 0.13 | 0.00 | 65 | 1017.1 |
| 20260510170508 | 27 | 120 | 1.6 | 6.4 | 0.00 | 0.13 | 0.00 | 69 | 1017.1 |
| 20260510170024 | 27 | 288 | 1.6 | 3.2 | 0.00 | 0.13 | 0.00 | 70 | 1017.2 |
| 20260510165507 | 27 | 67 | 1.6 | 8.0 | 0.00 | 0.13 | 0.00 | 68 | 1017.3 |
| 20260510165010 | 27 | 154 | 1.6 | 8.0 | 0.00 | 0.13 | 0.00 | 68 | 1017.3 |
| 20260510164526 | 27 | 107 | 3.2 | 6.4 | 0.00 | 0.13 | 0.00 | 68 | 1017.3 |
| 20260510164010 | 26 | 278 | 1.6 | 3.2 | 0.00 | 0.13 | 0.00 | 68 | 1017.3 |
| 20260510163511 | 26 | 158 | 1.6 | 6.4 | 0.00 | 0.13 | 0.00 | 69 | 1017.3 |
| 20260510163028 | 26 | 348 | 1.6 | 6.4 | 0.00 | 0.13 | 0.00 | 68 | 1017.3 |
| 20260510162507 | 26 | 67 | 1.6 | 4.8 | 0.00 | 0.15 | 0.00 | 71 | 1017.3 |
| 20260510162007 | 26 | 47 | 0.0 | 4.8 | 0.00 | 0.20 | 0.00 | 71 | 1017.2 |
| 20260510161523 | 26 | 76 | 1.6 | 3.2 | 0.00 | 0.28 | 0.00 | 70 | 1017.2 |
| 20260510161011 | 26 | 5 | 1.6 | 4.8 | 0.00 | 0.30 | 0.00 | 72 | 1017.2 |
| 20260510160505 | 26 | 74 | 1.6 | 6.4 | 0.00 | 0.30 | 0.00 | 70 | 1017.2 |
| 20260510160003 | 26 | 108 | 1.6 | 6.4 | 0.00 | 0.33 | 0.00 | 74 | 1017.2 |
| 20260510155502 | 26 | 175 | 3.2 | 4.8 | 0.00 | 0.38 | 0.00 | 74 | 1017.3 |
| 20260510155002 | 26 | 85 | 1.6 | 4.8 | 0.00 | 0.41 | 0.00 | 73 | 1017.3 |
| 20260510154508 | 26 | 49 | 1.6 | 6.4 | 0.00 | 0.48 | 0.00 | 73 | 1017.2 |
| 20260510154005 | 25 | 204 | 1.6 | 6.4 | 0.00 | 0.56 | 0.00 | 73 | 1017.3 |
| 20260510153503 | 25 | 178 | 1.6 | 6.4 | 0.00 | 0.61 | 0.00 | 73 | 1017.4 |
| 20260510153008 | 25 | 343 | 1.6 | 6.4 | 0.00 | 0.74 | 0.00 | 76 | 1017.5 |
| 20260510152508 | 25 | 352 | 1.6 | 6.4 | 0.00 | 0.97 | 0.00 | 73 | 1017.5 |
| 20260510152003 | 25 | 171 | 1.6 | 4.8 | 0.00 | 1.09 | 0.00 | 77 | 1017.3 |
| 20260510151520 | 25 | 24 | 1.6 | 4.8 | 0.00 | 1.14 | 0.00 | 74 | 1017.3 |
| 20260510151004 | 25 | 37 | 0.0 | 4.8 | 0.00 | 1.19 | 0.00 | 74 | 1017.4 |
| 20260510150504 | 25 | 91 | 1.6 | 4.8 | 0.00 | 1.24 | 0.00 | 77 | 1017.5 |
| 20260510150004 | 25 | 98 | 1.6 | 4.8 | 0.00 | 1.24 | 0.00 | 79 | 1017.4 |
| 20260510145502 | 25 | 88 | 1.6 | 4.8 | 0.00 | 1.24 | 0.00 | 78 | 1017.4 |
| 20260510145002 | 24 | 90 | 1.6 | 3.2 | 0.00 | 1.24 | 0.00 | 78 | 1017.5 |
| 20260510144503 | 25 | 49 | 1.6 | 4.8 | 0.00 | 1.24 | 0.00 | 77 | 1017.6 |
| 20260510144004 | 25 | 137 | 1.6 | 4.8 | 0.00 | 1.24 | 0.00 | 79 | 1017.6 |
| 20260510143504 | 24 | 5 | 1.6 | 4.8 | 0.00 | 1.24 | 0.00 | 80 | 1017.5 |
| 20260510143011 | 24 | 183 | 1.6 | 4.8 | 0.00 | 1.24 | 0.00 | 83 | 1017.5 |
| 20260510142507 | 23 | 153 | 1.6 | 3.2 | 0.00 | 1.24 | 0.00 | 82 | 1017.5 |
| 20260510142003 | 23 | 115 | 1.6 | 3.2 | 0.00 | 1.24 | 0.00 | 85 | 1017.5 |
| 20260510141511 | 22 | 144 | 0.0 | 3.2 | 0.00 | 1.24 | 0.00 | 86 | 1017.5 |
| 20260510141005 | 22 | 99 | 0.0 | 3.2 | 0.00 | 1.24 | 0.00 | 88 | 1017.4 |
| 20260510140503 | 22 | 88 | 1.6 | 3.2 | 0.00 | 1.24 | 0.00 | 85 | 1017.5 |
| 20260510140008 | 22 | 65 | 0.0 | 3.2 | 0.00 | 1.24 | 0.00 | 85 | 1017.4 |
| 20260510135504 | 22 | 68 | 1.6 | 4.8 | 0.00 | 1.24 | 0.00 | 87 | 1017.3 |
| 20260510135003 | 22 | 32 | 3.2 | 4.8 | 0.00 | 1.24 | 0.00 | 85 | 1017.4 |
| 20260510134504 | 22 | 77 | 1.6 | 4.8 | 0.00 | 1.24 | 0.00 | 86 | 1017.3 |
| 20260510134003 | 22 | 338 | 3.2 | 4.8 | 0.00 | 1.24 | 0.00 | 87 | 1017.3 |
| 20260510133502 | 21 | 49 | 1.6 | 4.8 | 0.00 | 1.24 | 0.00 | 88 | 1017.2 |
| 20260510133007 | 21 | 94 | 1.6 | 4.8 | 0.00 | 1.24 | 0.00 | 87 | 1017.2 |
| 20260510132508 | 21 | 107 | 1.6 | 4.8 | 0.00 | 1.24 | 0.00 | 88 | 1017.2 |
| 20260510132004 | 21 | 56 | 1.6 | 4.8 | 0.00 | 1.24 | 0.00 | 89 | 1017.2 |
| 20260510131510 | 20 | 13 | 0.0 | 4.8 | 0.00 | 1.24 | 0.00 | 92 | 1017.2 |
| 20260510131005 | 20 | 352 | 3.2 | 4.8 | 0.00 | 1.24 | 0.00 | 91 | 1017.1 |
| 20260510130505 | 20 | 360 | 1.6 | 3.2 | 0.00 | 1.24 | 0.00 | 91 | 1017.1 |
| 20260510130011 | 20 | 9 | 1.6 | 4.8 | 0.00 | 1.24 | 0.00 | 92 | 1017.0 |
| 20260510125504 | 20 | 9 | 1.6 | 4.8 | 0.00 | 1.24 | 0.00 | 93 | 1017.0 |
| 20260510125003 | 20 | 30 | 1.6 | 4.8 | 0.00 | 1.24 | 0.00 | 93 | 1017.0 |
| 20260510124510 | 20 | 30 | 1.6 | 4.8 | 0.00 | 1.24 | 0.00 | 94 | 1016.8 |
| 20260510124004 | 19 | 43 | 0.0 | 4.8 | 0.00 | 1.24 | 0.00 | 94 | 1016.8 |
| 20260510123503 | 19 | 342 | 1.6 | 4.8 | 0.00 | 1.24 | 0.00 | 95 | 1016.8 |
| 20260510123005 | 19 | 12 | 1.6 | 3.2 | 0.00 | 1.24 | 0.00 | 95 | 1016.6 |
| 20260510122502 | 19 | 342 | 1.6 | 3.2 | 0.00 | 1.24 | 0.00 | 95 | 1016.5 |
| 20260510122004 | 19 | 342 | 1.6 | 3.2 | 0.00 | 1.24 | 0.00 | 95 | 1016.4 |
| 20260510121510 | 19 | 28 | 0.0 | 3.2 | 0.00 | 1.24 | 0.00 | 95 | 1016.2 |
| 20260510121004 | 18 | 360 | 0.0 | 3.2 | 0.00 | 1.24 | 0.00 | 96 | 1016.1 |
| 20260510120508 | 18 | 350 | 0.0 | 3.2 | 0.00 | 1.24 | 0.00 | 96 | 1016.1 |
| 20260510120013 | 18 | 24 | 0.0 | 3.2 | 0.00 | 1.24 | 0.00 | 96 | 1016.0 |
| 20260510115507 | 18 | 5 | 0.0 | 3.2 | 0.00 | 1.24 | 0.00 | 96 | 1015.9 |
| 20260510115007 | 18 | 360 | 0.0 | 3.2 | 0.00 | 1.24 | 0.00 | 96 | 1015.8 |
| 20260510114518 | 18 | 74 | 0.0 | 3.2 | 0.00 | 1.24 | 0.00 | 95 | 1015.7 |
| 20260510114006 | 18 | 352 | 0.0 | 3.2 | 0.00 | 1.24 | 0.00 | 95 | 1015.7 |
| 20260510113504 | 18 | 350 | 0.0 | 3.2 | 0.00 | 1.24 | 0.00 | 95 | 1015.6 |
| 20260510113013 | 18 | 350 | 0.0 | 3.2 | 0.00 | 1.24 | 0.00 | 95 | 1015.7 |
| 20260510112504 | 18 | 352 | 0.0 | 3.2 | 0.00 | 1.24 | 0.00 | 95 | 1015.6 |
| 20260510112005 | 18 | 9 | 0.0 | 3.2 | 0.00 | 1.27 | 0.00 | 95 | 1015.6 |
| 20260510111508 | 18 | 344 | 0.0 | 3.2 | 0.00 | 1.27 | 0.00 | 95 | 1015.6 |
| 20260510111004 | 18 | 344 | 0.0 | 3.2 | 0.00 | 1.27 | 0.00 | 95 | 1015.5 |
| 20260510110504 | 18 | 360 | 0.0 | 3.2 | 0.00 | 1.27 | 0.00 | 95 | 1015.4 |
| 20260510110023 | 18 | 360 | 0.0 | 3.2 | 0.00 | 1.27 | 0.00 | 95 | 1015.3 |
| 20260510105506 | 17 | 360 | 0.0 | 0.0 | 0.00 | 1.27 | 0.00 | 95 | 1015.1 |
| 20260510105005 | 18 | 360 | 0.0 | 0.0 | 0.00 | 1.27 | 0.00 | 95 | 1015.1 |
| 20260510104516 | 18 | 360 | 0.0 | 0.0 | 0.00 | 1.27 | 0.00 | 95 | 1015.0 |
| 20260510104004 | 17 | 360 | 0.0 | 0.0 | 0.00 | 1.27 | 0.00 | 95 | 1014.9 |
| 20260510103504 | 18 | 360 | 0.0 | 0.0 | 0.00 | 1.27 | 0.00 | 95 | 1014.8 |
| 20260510103015 | 18 | 360 | 0.0 | 0.0 | 0.00 | 1.27 | 0.00 | 95 | 1014.8 |
| 20260510102505 | 18 | 360 | 0.0 | 3.2 | 0.00 | 1.27 | 0.00 | 95 | 1014.7 |
| 20260510102005 | 18 | 360 | 0.0 | 3.2 | 0.00 | 1.27 | 0.00 | 95 | 1014.6 |
| 20260510101510 | 18 | 360 | 0.0 | 3.2 | 0.00 | 1.27 | 0.00 | 95 | 1014.6 |
| 20260510101004 | 18 | 360 | 0.0 | 3.2 | 0.00 | 1.27 | 0.00 | 95 | 1014.6 |
| 20260510100505 | 18 | 360 | 0.0 | 0.0 | 0.00 | 1.27 | 0.00 | 95 | 1014.7 |
| 20260510100012 | 18 | 360 | 0.0 | 3.2 | 0.00 | 1.27 | 0.00 | 95 | 1014.7 |
| 20260510095504 | 18 | 360 | 0.0 | 3.2 | 0.00 | 1.27 | 0.00 | 95 | 1014.6 |
| 20260510095003 | 18 | 360 | 0.0 | 3.2 | 0.00 | 1.27 | 0.00 | 95 | 1014.6 |
| 20260510094519 | 18 | 360 | 0.0 | 3.2 | 0.00 | 1.27 | 0.00 | 95 | 1014.5 |
| 20260510094007 | 18 | 360 | 0.0 | 3.2 | 0.00 | 1.27 | 0.00 | 95 | 1014.4 |
| 20260510093512 | 18 | 360 | 0.0 | 3.2 | 0.00 | 1.27 | 0.00 | 95 | 1014.3 |
| 20260510093018 | 18 | 360 | 0.0 | 3.2 | 0.00 | 1.27 | 0.00 | 95 | 1014.2 |
| 20260510092506 | 18 | 360 | 0.0 | 3.2 | 0.00 | 1.27 | 0.00 | 95 | 1014.2 |
| 20260510092012 | 18 | 352 | 0.0 | 3.2 | 0.00 | 1.27 | 0.00 | 95 | 1014.1 |
| 20260510091517 | 18 | 360 | 0.0 | 3.2 | 0.00 | 1.27 | 0.00 | 95 | 1014.1 |
| 20260510091005 | 18 | 352 | 0.0 | 3.2 | 0.00 | 1.27 | 0.00 | 95 | 1014.1 |
| 20260510090503 | 18 | 348 | 0.0 | 3.2 | 0.00 | 1.27 | 0.00 | 95 | 1014.1 |
| 20260510090009 | 18 | 348 | 0.0 | 3.2 | 0.00 | 1.27 | 0.00 | 95 | 1014.0 |
| 20260510085507 | 18 | 348 | 0.0 | 3.2 | 0.00 | 1.27 | 0.00 | 95 | 1013.9 |
| 20260510085008 | 18 | 348 | 0.0 | 0.0 | 0.00 | 1.27 | 0.00 | 94 | 1013.9 |
| 20260510084514 | 19 | 348 | 0.0 | 3.2 | 0.00 | 1.27 | 0.00 | 95 | 1013.8 |
| 20260510084004 | 19 | 348 | 0.0 | 3.2 | 0.00 | 1.27 | 0.00 | 95 | 1013.7 |
| 20260510083508 | 19 | 348 | 0.0 | 3.2 | 0.00 | 1.27 | 0.00 | 95 | 1013.7 |
| 20260510083019 | 19 | 350 | 0.0 | 3.2 | 0.00 | 1.27 | 0.00 | 95 | 1013.6 |
| 20260510082503 | 19 | 345 | 0.0 | 3.2 | 0.00 | 1.27 | 0.00 | 95 | 1013.4 |
| 20260510082003 | 19 | 12 | 0.0 | 3.2 | 0.00 | 1.27 | 0.00 | 95 | 1013.4 |
| 20260510081519 | 19 | 11 | 0.0 | 3.2 | 0.00 | 1.27 | 0.00 | 95 | 1013.4 |
| 20260510081010 | 19 | 16 | 0.0 | 3.2 | 0.00 | 1.27 | 0.00 | 95 | 1013.3 |
| 20260510080506 | 19 | 67 | 0.0 | 3.2 | 0.00 | 1.27 | 0.00 | 95 | 1013.2 |
| 20260510080021 | 19 | 86 | 0.0 | 3.2 | 0.00 | 1.27 | 0.00 | 95 | 1013.2 |
| 20260510075508 | 19 | 86 | 1.6 | 3.2 | 0.00 | 1.27 | 0.00 | 95 | 1013.1 |
| 20260510075006 | 19 | 69 | 0.0 | 3.2 | 0.00 | 1.27 | 0.00 | 95 | 1013.0 |
| 20260510074511 | 19 | 148 | 0.0 | 3.2 | 0.00 | 1.27 | 0.00 | 95 | 1013.2 |
| 20260510074007 | 19 | 148 | 0.0 | 3.2 | 0.00 | 1.27 | 0.00 | 95 | 1013.1 |
| 20260510073505 | 19 | 148 | 0.0 | 3.2 | 0.00 | 1.27 | 0.00 | 95 | 1013.2 |
| 20260510073016 | 19 | 138 | 1.6 | 3.2 | 0.00 | 1.27 | 0.00 | 94 | 1013.2 |
| 20260510072507 | 19 | 160 | 0.0 | 6.4 | 0.00 | 1.27 | 0.00 | 94 | 1013.0 |
| 20260510072007 | 19 | 167 | 1.6 | 6.4 | 0.00 | 1.27 | 0.00 | 94 | 1013.0 |
| 20260510071526 | 19 | 149 | 1.6 | 3.2 | 0.00 | 1.27 | 0.00 | 94 | 1013.2 |
| 20260510071007 | 20 | 11 | 0.0 | 3.2 | 0.00 | 1.27 | 0.00 | 94 | 1013.3 |
| 20260510070503 | 20 | 5 | 0.0 | 3.2 | 0.00 | 1.27 | 0.00 | 95 | 1013.6 |
| 20260510070006 | 20 | 42 | 0.0 | 3.2 | 0.00 | 1.27 | 0.00 | 95 | 1013.5 |
| 20260510065504 | 20 | 113 | 0.0 | 3.2 | 0.00 | 1.27 | 0.00 | 95 | 1013.5 |
| 20260510065005 | 20 | 113 | 0.0 | 3.2 | 0.00 | 1.30 | 0.00 | 94 | 1013.4 |
| 20260510064510 | 20 | 113 | 0.0 | 3.2 | 0.00 | 1.30 | 0.00 | 94 | 1013.5 |
| 20260510064004 | 20 | 113 | 0.0 | 3.2 | 0.00 | 1.30 | 0.00 | 94 | 1013.4 |
| 20260510063504 | 20 | 113 | 0.0 | 3.2 | 0.00 | 1.30 | 0.00 | 94 | 1013.5 |
| 20260510063014 | 20 | 113 | 0.0 | 3.2 | 0.00 | 1.32 | 0.00 | 94 | 1013.4 |
| 20260510062504 | 20 | 113 | 0.0 | 3.2 | 0.00 | 1.32 | 0.00 | 94 | 1013.4 |
| 20260510062008 | 20 | 113 | 0.0 | 3.2 | 0.00 | 1.32 | 0.00 | 94 | 1013.5 |
| 20260510061520 | 20 | 128 | 0.0 | 3.2 | 0.00 | 1.32 | 0.00 | 94 | 1013.7 |
| 20260510061007 | 20 | 72 | 0.0 | 3.2 | 0.00 | 1.32 | 0.00 | 94 | 1013.8 |
| 20260510060509 | 20 | 72 | 0.0 | 3.2 | 0.00 | 1.32 | 0.00 | 94 | 1014.0 |
| 20260510060023 | 20 | 72 | 0.0 | 3.2 | 0.00 | 1.32 | 0.00 | 94 | 1014.1 |
| 20260510055505 | 20 | 72 | 0.0 | 3.2 | 0.00 | 1.32 | 0.00 | 94 | 1014.1 |
| 20260510055002 | 20 | 72 | 0.0 | 3.2 | 0.00 | 1.32 | 0.00 | 94 | 1014.1 |
| 20260510054508 | 20 | 55 | 0.0 | 3.2 | 0.00 | 1.32 | 0.00 | 94 | 1014.0 |
| 20260510054004 | 20 | 24 | 0.0 | 3.2 | 0.00 | 1.32 | 0.00 | 94 | 1014.1 |
| 20260510053503 | 20 | 10 | 0.0 | 3.2 | 0.00 | 1.32 | 0.00 | 95 | 1014.2 |
| 20260510053013 | 20 | 304 | 0.0 | 3.2 | 0.00 | 1.37 | 0.00 | 95 | 1014.2 |
| 20260510052504 | 20 | 108 | 0.0 | 3.2 | 0.00 | 1.37 | 0.00 | 95 | 1014.0 |
| 20260510052008 | 20 | 108 | 0.0 | 3.2 | 0.00 | 1.37 | 0.00 | 95 | 1013.8 |
| 20260510051518 | 20 | 132 | 0.0 | 3.2 | 0.00 | 1.37 | 0.00 | 95 | 1013.9 |
| 20260510051005 | 20 | 131 | 1.6 | 3.2 | 0.00 | 1.40 | 0.00 | 95 | 1013.7 |
| 20260510050508 | 20 | 105 | 0.0 | 3.2 | 0.00 | 1.40 | 0.00 | 95 | 1013.4 |
| 20260510050023 | 20 | 77 | 0.0 | 3.2 | 0.00 | 1.40 | 0.00 | 95 | 1013.8 |
| 20260510045510 | 20 | 73 | 0.0 | 3.2 | 0.00 | 1.40 | 1.40 | 95 | 1013.8 |
| 20260510045012 | 20 | 106 | 0.0 | 3.2 | 0.00 | 1.42 | 1.40 | 95 | 1014.0 |
| 20260510044509 | 20 | 106 | 0.0 | 3.2 | 0.00 | 1.42 | 1.40 | 95 | 1014.1 |
| 20260510044003 | 20 | 102 | 0.0 | 3.2 | 0.00 | 1.42 | 1.40 | 94 | 1014.1 |
| 20260510043505 | 20 | 92 | 0.0 | 3.2 | 0.00 | 1.42 | 1.40 | 95 | 1014.2 |
| 20260510043012 | 20 | 58 | 0.0 | 3.2 | 0.00 | 1.42 | 1.40 | 95 | 1014.4 |
| 20260510042506 | 20 | 340 | 0.0 | 3.2 | 0.00 | 1.42 | 1.40 | 95 | 1014.4 |
| 20260510042003 | 20 | 332 | 0.0 | 3.2 | 0.00 | 1.45 | 1.40 | 95 | 1014.4 |
| 20260510041515 | 20 | 329 | 0.0 | 3.2 | 0.00 | 1.45 | 1.40 | 95 | 1014.5 |
| 20260510041004 | 20 | 53 | 0.0 | 3.2 | 0.00 | 1.45 | 1.40 | 95 | 1014.4 |
| 20260510040508 | 20 | 53 | 0.0 | 3.2 | 0.00 | 1.45 | 1.40 | 95 | 1014.6 |
| 20260510040025 | 20 | 53 | 0.0 | 3.2 | 0.00 | 1.45 | 1.40 | 95 | 1014.7 |
| 20260510035510 | 20 | 53 | 0.0 | 3.2 | 0.00 | 1.45 | 1.40 | 95 | 1014.8 |
| 20260510035007 | 20 | 53 | 0.0 | 3.2 | 0.00 | 1.45 | 1.40 | 95 | 1014.7 |
| 20260510034524 | 20 | 26 | 0.0 | 1.6 | 0.00 | 1.45 | 1.40 | 94 | 1014.6 |
| 20260510034009 | 20 | 26 | 0.0 | 3.2 | 0.00 | 1.45 | 1.40 | 94 | 1014.5 |
| 20260510033506 | 20 | 26 | 0.0 | 3.2 | 0.00 | 1.45 | 1.40 | 94 | 1014.7 |
| 20260510033014 | 20 | 26 | 0.0 | 3.2 | 0.00 | 1.45 | 1.40 | 94 | 1014.5 |
| 20260510032503 | 20 | 26 | 0.0 | 3.2 | 0.00 | 1.45 | 1.40 | 94 | 1014.4 |
| 20260510032008 | 20 | 26 | 0.0 | 3.2 | 0.00 | 1.45 | 1.40 | 94 | 1014.4 |
| 20260510031512 | 20 | 26 | 0.0 | 3.2 | 0.00 | 1.45 | 1.40 | 94 | 1014.3 |
| 20260510031004 | 20 | 26 | 0.0 | 3.2 | 0.00 | 1.45 | 1.40 | 94 | 1014.2 |
| 20260510030504 | 20 | 24 | 0.0 | 3.2 | 0.00 | 1.45 | 1.40 | 94 | 1014.1 |
| 20260510030021 | 20 | 24 | 0.0 | 3.2 | 0.00 | 1.45 | 1.40 | 94 | 1014.2 |
| 20260510025505 | 20 | 24 | 0.0 | 3.2 | 0.00 | 1.45 | 1.40 | 94 | 1014.0 |
| 20260510025009 | 20 | 5 | 0.0 | 3.2 | 0.00 | 1.47 | 1.40 | 94 | 1013.8 |
| 20260510024523 | 20 | 352 | 0.0 | 3.2 | 0.00 | 1.47 | 1.40 | 94 | 1013.8 |
| 20260510024009 | 20 | 352 | 0.0 | 3.2 | 0.00 | 1.47 | 1.40 | 94 | 1013.9 |
| 20260510023510 | 20 | 9 | 0.0 | 3.2 | 0.00 | 1.47 | 1.40 | 94 | 1013.9 |
| 20260510023026 | 20 | 348 | 0.0 | 3.2 | 0.00 | 1.47 | 1.40 | 94 | 1013.9 |
| 20260510022511 | 20 | 38 | 0.0 | 3.2 | 0.00 | 1.47 | 1.40 | 94 | 1013.8 |
| 20260510022006 | 20 | 38 | 0.0 | 3.2 | 0.00 | 1.47 | 1.40 | 94 | 1013.8 |
| 20260510021512 | 20 | 349 | 1.6 | 3.2 | 0.00 | 1.47 | 1.40 | 94 | 1013.9 |
| 20260510021003 | 20 | 84 | 0.0 | 3.2 | 0.00 | 1.47 | 1.40 | 94 | 1013.8 |
| 20260510020503 | 20 | 84 | 0.0 | 3.2 | 0.00 | 1.47 | 1.40 | 94 | 1013.8 |
| 20260510020020 | 20 | 89 | 1.6 | 1.6 | 0.00 | 1.47 | 1.40 | 94 | 1013.9 |
| 20260510015507 | 20 | 313 | 0.0 | 3.2 | 0.00 | 1.47 | 1.40 | 94 | 1014.1 |
| 20260510015008 | 20 | 313 | 0.0 | 3.2 | 0.00 | 1.47 | 1.40 | 94 | 1014.1 |
| 20260510014520 | 20 | 313 | 0.0 | 3.2 | 0.00 | 1.47 | 1.40 | 94 | 1014.4 |
| 20260510014007 | 20 | 302 | 0.0 | 3.2 | 0.00 | 1.47 | 1.40 | 94 | 1014.3 |
| 20260510013508 | 20 | 303 | 0.0 | 3.2 | 0.00 | 1.47 | 1.40 | 94 | 1014.4 |
| 20260510013028 | 20 | 173 | 0.0 | 3.2 | 0.03 | 1.47 | 1.40 | 94 | 1014.3 |
| 20260510012511 | 20 | 173 | 0.0 | 1.6 | 0.03 | 1.47 | 1.40 | 94 | 1014.1 |
| 20260510012008 | 20 | 173 | 0.0 | 3.2 | 0.03 | 1.47 | 1.40 | 94 | 1014.2 |
| 20260510011526 | 20 | 173 | 0.0 | 3.2 | 0.03 | 1.47 | 1.40 | 94 | 1014.3 |
| 20260510011002 | 20 | 173 | 0.0 | 3.2 | 0.03 | 1.47 | 1.40 | 94 | 1014.3 |
| 20260510010503 | 20 | 173 | 0.0 | 3.2 | 0.03 | 1.47 | 1.40 | 94 | 1014.3 |
| 20260510010014 | 20 | 173 | 0.0 | 3.2 | 0.03 | 1.47 | 1.40 | 93 | 1014.2 |
| 20260510005507 | 20 | 165 | 0.0 | 3.2 | 0.03 | 1.47 | 1.40 | 93 | 1014.1 |
| 20260510005005 | 20 | 161 | 0.0 | 3.2 | 0.03 | 1.47 | 1.40 | 93 | 1013.8 |
| 20260510004519 | 20 | 151 | 0.0 | 3.2 | 0.03 | 1.47 | 1.40 | 93 | 1013.5 |
| 20260510004011 | 20 | 134 | 0.0 | 3.2 | 0.03 | 1.47 | 1.40 | 93 | 1013.3 |
| 20260510003505 | 20 | 158 | 0.0 | 6.4 | 0.03 | 1.52 | 1.40 | 93 | 1013.3 |
| 20260510003022 | 20 | 135 | 0.0 | 6.4 | 0.00 | 1.47 | 1.37 | 93 | 1013.3 |
| 20260510002503 | 20 | 127 | 1.6 | 6.4 | 0.00 | 1.47 | 1.37 | 93 | 1013.0 |
| 20260510002003 | 20 | 159 | 1.6 | 6.4 | 0.00 | 1.52 | 1.37 | 93 | 1012.9 |
| 20260510001519 | 20 | 132 | 1.6 | 3.2 | 0.00 | 1.52 | 1.37 | 93 | 1012.8 |
| 20260510001003 | 20 | 124 | 1.6 | 8.0 | 0.00 | 1.52 | 1.37 | 93 | 1012.9 |
| 20260510000507 | 20 | 123 | 1.6 | 8.0 | 0.03 | 1.52 | 1.37 | 93 | 1012.8 |
| 20260510000012 | 20 | 182 | 1.6 | 3.2 | 0.03 | 1.52 | 1.37 | 93 | 1012.9 |
| 20260509235504 | 20 | 159 | 0.0 | 3.2 | 0.03 | 1.52 | 1.37 | 93 | 1013.0 |
| 20260509235004 | 20 | 153 | 0.0 | 3.2 | 0.05 | 1.52 | 1.37 | 93 | 1013.2 |
| 20260509234516 | 20 | 151 | 0.0 | 3.2 | 0.05 | 1.52 | 1.37 | 93 | 1013.2 |
| 20260509234005 | 20 | 151 | 0.0 | 3.2 | 0.05 | 1.52 | 1.37 | 93 | 1013.2 |
| 20260509233509 | 20 | 151 | 0.0 | 3.2 | 0.05 | 1.52 | 1.37 | 93 | 1013.1 |
| 20260509233021 | 20 | 151 | 0.0 | 3.2 | 0.05 | 1.52 | 1.37 | 93 | 1013.0 |
| 20260509232511 | 20 | 151 | 0.0 | 3.2 | 0.05 | 1.52 | 1.37 | 93 | 1013.3 |
| 20260509232007 | 20 | 151 | 0.0 | 1.6 | 0.05 | 1.52 | 1.37 | 93 | 1013.3 |
| 20260509231508 | 20 | 151 | 0.0 | 3.2 | 0.05 | 1.52 | 1.37 | 93 | 1013.4 |
| 20260509231004 | 20 | 151 | 0.0 | 3.2 | 0.05 | 1.52 | 1.37 | 93 | 1013.5 |